Wind_Speed
21 21 23 25 25 24 23 25 25 25 25 23 21 19 18 18 19 20 21 24 26 26 25 25 24 24 24 23 22 21 21 22 21 21 21 21 20 20
19 18 19 20 20 19 20 19 22 24 25 25 24 21 20 19 18 18 19 21 25 26 26 26 26 25 25 23 22 21 20 20 20 20 20 19 19 19
19 18 18 18 18 18 18 17 19 22 24 26 26 25 24 23 22 20 18 19 21 24 26 27 27 27 26 25 24 23 22 22 22 21 20 21 21 21
19 19 18 18 19 20 20 19 20 21 23 26 28 30 30 28 26 24 23 22 21 22 23 25 26 27 27 26 25 25 24 24 24 24 24 25 25 24
20 20 19 18 18 19 20 21 21 22 23 25 27 30 32 32 30 29 28 27 26 24 24 24 25 26 27 26 26 26 26 26 26 26 27 27 27 26
22 22 21 20 19 18 19 21 22 23 23 24 25 28 31 32 32 31 31 31 30 28 27 27 27 27 27 27 27 27 28 28 28 28 28 28 28 27
24 25 24 23 21 21 20 21 22 24 25 25 26 27 29 31 33 34 34 34 33 32 31 30 28 28 29 30 30 30 31 31 31 31 31 30 29 28
24 25 26 25 24 23 23 23 24 24 25 26 25 26 28 31 34 36 37 36 34 35 33 32 30 31 32 32 32 33 33 33 33 33 32 32 32 31
24 25 26 26 26 25 25 25 25 25 25 25 26 25 27 29 32 36 38 39 38 37 35 34 34 34 33 33 34 34 35 35 35 34 35 35 34 34
23 24 25 26 26 26 26 26 26 26 26 26 26 27 26 26 30 34 36 39 40 40 38 36 36 36 34 34 34 35 36 36 36 36 37 37 38 38
22 23 24 25 25 25 25 26 26 26 26 26 26 26 26 25 25 29 33 37 40 41 41 39 39 39 38 37 36 37 37 37 37 37 37 38 38 39
22 23 23 24 24 24 24 24 25 25 25 25 25 25 24 24 23 24 28 33 39 42 43 43 43 43 42 41 41 40 39 39 39 39 39 39 38 39
24 24 25 25 24 24 24 23 23 24 24 24 24 24 23 22 21 22 24 26 30 34 38 41 43 43 43 43 43 42 41 40 41 41 42 42 41 41
27 27 28 28 27 26 24 23 22 22 22 23 23 23 22 22 22 22 23 24 25 26 29 32 35 38 40 40 41 43 44 44 44 45 45 45 45 45
28 29 29 29 29 28 26 24 23 21 21 21 22 22 22 23 25 26 27 28 28 29 29 30 32 35 37 38 39 41 43 44 45 46 47 47 48 48
26 27 27 27 27 27 26 24 22 21 21 21 21 21 22 23 24 26 28 29 30 30 31 32 34 35 37 38 39 40 42 43 44 45 46 46 46 47
15 16 18 20 21 23 23 23 21 20 20 20 20 21 21 22 23 24 25 26 27 28 29 31 32 34 35 37 38 39 40 40 41 42 42 43 45 47
4 3 8 12 14 16 18 18 18 17 17 17 18 18 19 20 20 20 22 23 25 26 28 30 31 32 34 35 37 38 39 40 41 41 42 42 43 46
8 8 8 8 9 10 11 12 12 12 13 12 13 14 15 17 19 20 22 24 26 28 30 31 32 33 34 35 37 39 39 40 41 42 43 44 44 45
11 11 11 10 9 7 6 6 6 7 7 8 10 13 15 17 19 21 23 25 26 28 30 31 32 33 34 34 35 37 39 39 40 42 43 43 44 45
14 14 13 12 10 8 6 3 1 2 4 7 10 13 16 18 20 22 24 26 27 29 31 32 33 33 34 35 36 37 39 40 42 43 44 45 45 46
16 16 16 14 12 10 9 7 5 5 6 8 11 13 16 18 21 23 25 26 28 29 31 32 33 34 34 35 36 37 38 40 42 43 44 44 45 45
20 20 19 17 15 14 12 10 9 8 9 11 13 15 17 19 21 23 24 25 26 26 27 28 29 30 31 33 34 35 37 38 39 40 42 43 43 44
Wind_Direction
271 265 260 258 259 259 262 253 240 228 226 231 235 236 236 235 234 233 230 230 230 232 235 237 239 241 243 245 243 242 241 240 240 240 242 245 250 255
267 262 258 256 254 254 253 249 237 229 224 229 234 238 240 239 238 236 232 231 231 233 235 236 238 242 245 245 243 242 240 238 237 239 242 245 250 254
262 258 255 254 253 249 247 248 242 233 229 231 235 239 242 242 241 241 239 236 235 235 236 235 236 239 242 243 241 240 238 238 240 243 247 249 250 252
260 255 254 253 253 251 250 250 246 238 234 235 236 238 242 244 243 243 244 243 239 237 237 236 236 238 239 240 239 239 240 242 245 249 251 252 252 252
259 256 254 254 253 251 249 248 246 243 241 241 241 241 242 244 243 243 244 247 245 242 241 241 240 241 241 242 242 242 244 246 249 252 253 253 253 252
257 256 255 254 252 249 246 244 244 244 244 245 246 248 246 244 244 243 243 245 247 246 245 244 245 246 246 246 246 247 248 250 251 252 253 253 254 254
258 255 254 254 253 251 248 246 243 244 246 248 251 253 250 247 246 245 245 245 246 245 244 245 248 250 250 248 247 247 249 251 251 252 252 254 255 256
259 255 253 253 253 254 253 252 249 248 249 251 253 255 254 253 250 248 247 247 245 243 243 246 250 252 252 251 250 249 249 249 250 251 253 255 256 257
260 255 252 251 252 254 256 257 256 254 253 253 255 258 258 255 254 252 249 248 245 245 245 248 251 253 253 253 253 252 251 251 251 252 254 256 257 258
263 256 252 250 250 251 253 255 258 258 258 257 258 260 263 263 259 255 252 248 246 247 248 250 253 253 254 254 255 255 255 254 254 255 257 258 259 260
263 257 253 250 249 249 251 252 255 257 259 261 263 265 265 265 263 258 252 248 247 248 250 252 254 256 256 258 258 258 258 258 258 259 260 260 261 261
263 257 253 251 250 250 252 254 256 258 259 260 262 264 266 265 263 262 258 252 249 249 251 254 255 257 258 260 261 260 259 259 260 260 261 261 262 262
264 259 254 252 252 251 252 254 257 259 260 261 262 262 262 261 261 258 258 254 249 247 249 251 253 255 257 259 261 261 260 259 260 261 262 262 262 262
264 260 255 252 250 249 249 251 254 257 259 259 259 259 257 255 255 255 256 256 256 254 253 252 252 251 253 255 259 262 263 263 263 263 263 263 263 263
268 261 255 249 246 245 246 248 252 255 256 256 255 254 254 253 254 257 261 263 265 266 266 265 263 262 260 260 261 263 265 266 266 266 265 265 266 266
271 262 254 247 242 240 240 244 249 252 253 254 253 253 254 256 258 260 264 266 268 268 269 271 271 271 270 268 267 267 267 268 268 268 267 267 267 266
279 260 246 237 233 232 233 236 243 250 252 253 255 257 259 261 264 265 267 269 270 271 271 271 272 272 272 271 271 270 270 270 269 269 269 269 268 267
328 232 209 206 210 216 220 227 237 246 251 255 257 260 263 266 268 270 272 273 274 275 275 276 276 276 275 275 274 273 273 273 273 274 273 272 272 270
72 98 123 148 171 186 202 216 229 241 250 254 259 265 271 274 276 278 278 278 278 279 279 279 279 278 278 278 277 276 276 276 276 276 276 275 274 274
81 91 102 113 128 144 167 195 215 232 246 262 274 283 287 289 289 288 287 286 285 285 284 283 282 281 280 279 279 279 279 278 277 277 276 276 275 274
82 89 95 97 98 101 108 121 152 276 291 297 299 300 300 299 299 297 295 293 291 290 288 287 285 284 283 282 281 280 280 279 279 278 276 275 274 274
78 82 86 86 83 80 76 68 53 20 346 328 320 316 313 310 307 304 302 299 296 294 292 290 288 286 285 284 284 284 283 281 280 279 277 275 274 272
76 77 78 77 73 69 65 58 46 27 9 353 342 336 331 326 322 317 312 308 304 301 298 296 294 292 290 289 288 287 286 285 283 282 280 278 277 275
Height
5798 5798 5799 5800 5801 5803 5805 5806 5809 5812 5815 5818 5821 5823 5825 5827 5828 5830 5831 5834 5837 5840 5843 5845 5848 5850 5852 5854 5856 5857 5859 5861 5862 5864 5866 5867 5868 5869
5792 5793 5794 5795 5796 5797 5799 5801 5803 5807 5810 5813 5816 5818 5821 5823 5825 5826 5828 5830 5832 5835 5838 5840 5843 5845 5848 5849 5851 5852 5854 5856 5858 5860 5861 5862 5863 5864
5787 5788 5789 5790 5791 5792 5794 5796 5798 5801 5805 5807 5810 5813 5816 5818 5820 5823 5825 5826 5828 5830 5832 5835 5838 5840 5842 5844 5846 5848 5850 5852 5853 5855 5856 5857 5858 5859
5783 5783 5784 5785 5787 5788 5790 5792 5794 5796 5799 5802 5804 5807 5810 5813 5815 5818 5820 5822 5823 5825 5827 5830 5832 5834 5837 5839 5841 5843 5845 5847 5848 5849 5851 5852 5853 5854
5779 5779 5780 5781 5782 5783 5785 5787 5789 5791 5794 5796 5798 5801 5804 5807 5809 5812 5814 5816 5818 5820 5822 5824 5826 5828 5830 5832 5835 5837 5839 5841 5842 5844 5845 5846 5847 5848
5774 5775 5775 5776 5777 5779 5780 5782 5784 5786 5788 5791 5793 5794 5797 5799 5802 5805 5807 5809 5812 5815 5817 5818 5820 5822 5824 5827 5828 5830 5832 5834 5835 5837 5838 5839 5840 5840
5768 5769 5770 5771 5772 5774 5775 5776 5778 5780 5782 5785 5786 5788 5790 5792 5795 5797 5800 5802 5806 5808 5810 5812 5814 5816 5818 5820 5821 5823 5825 5827 5828 5830 5831 5832 5832 5833
5762 5763 5764 5765 5766 5768 5769 5771 5772 5774 5776 5778 5779 5781 5783 5784 5786 5789 5792 5795 5798 5800 5803 5805 5807 5809 5810 5812 5814 5816 5817 5819 5820 5822 5823 5824 5824 5825
5754 5755 5757 5758 5759 5761 5763 5764 5766 5767 5769 5771 5772 5773 5775 5776 5778 5780 5783 5786 5789 5792 5795 5797 5799 5800 5802 5805 5807 5808 5810 5811 5812 5813 5814 5815 5815 5816
5746 5748 5749 5750 5752 5754 5755 5757 5759 5760 5762 5764 5765 5766 5767 5768 5770 5771 5773 5776 5780 5783 5786 5789 5790 5792 5794 5797 5798 5799 5801 5802 5803 5804 5805 5805 5806 5806
5739 5740 5741 5743 5745 5746 5748 5750 5751 5753 5755 5756 5758 5759 5760 5761 5761 5763 5764 5767 5770 5773 5776 5779 5781 5782 5785 5788 5789 5790 5790 5791 5793 5794 5795 5796 5796 5796
5732 5733 5734 5736 5738 5740 5741 5743 5744 5746 5747 5749 5750 5752 5753 5754 5755 5756 5757 5758 5761 5764 5766 5769 5770 5772 5775 5777 5778 5779 5780 5781 5782 5783 5784 5785 5785 5786
5724 5725 5726 5728 5730 5733 5735 5736 5738 5740 5741 5742 5743 5745 5746 5748 5749 5750 5750 5751 5752 5754 5756 5758 5760 5761 5763 5766 5766 5767 5769 5770 5771 5771 5772 5773 5774 5774
5714 5715 5717 5719 5722 5725 5728 5730 5732 5734 5735 5736 5737 5739 5740 5741 5743 5743 5744 5744 5745 5746 5747 5748 5750 5751 5752 5754 5755 5756 5756 5758 5759 5759 5760 5760 5761 5761
5703 5703 5705 5708 5712 5716 5720 5723 5726 5728 5730 5731 5732 5733 5734 5735 5736 5737 5737 5738 5738 5739 5739 5740 5740 5741 5742 5743 5744 5744 5745 5745 5746 5746 5747 5747 5748 5748
5690 5691 5693 5697 5702 5707 5712 5716 5720 5722 5724 5725 5726 5727 5728 5729 5729 5730 5730 5730 5731 5731 5731 5731 5731 5732 5732 5732 5732 5732 5733 5733 5733 5733 5733 5734 5734 5734
5681 5681 5684 5689 5694 5700 5705 5710 5714 5717 5718 5720 5721 5722 5723 5723 5723 5723 5723 5723 5723 5723 5723 5723 5722 5722 5722 5721 5721 5721 5720 5720 5720 5720 5720 5720 5719 5719
5678 5678 5680 5685 5690 5695 5700 5705 5709 5712 5714 5715 5716 5717 5718 5718 5718 5717 5717 5717 5717 5716 5715 5715 5714 5714 5713 5712 5711 5710 5709 5708 5708 5707 5707 5707 5706 5705
5681 5681 5683 5687 5691 5695 5699 5703 5706 5709 5711 5712 5713 5713 5714 5713 5713 5713 5712 5711 5710 5709 5708 5707 5705 5704 5703 5702 5700 5699 5698 5697 5696 5695 5694 5694 5693 5692
5686 5686 5688 5690 5693 5697 5700 5703 5705 5707 5709 5710 5710 5711 5710 5709 5709 5707 5706 5705 5703 5701 5699 5697 5696 5694 5693 5691 5689 5687 5685 5684 5683 5682 5681 5680 5679 5679
5692 5692 5693 5695 5698 5700 5702 5704 5706 5708 5708 5709 5708 5708 5707 5705 5704 5702 5700 5697 5695 5693 5690 5688 5686 5684 5681 5680 5678 5676 5674 5672 5670 5669 5667 5666 5666 5665
5698 5699 5700 5701 5703 5704 5705 5707 5707 5708 5708 5707 5706 5705 5703 5701 5699 5696 5693 5690 5687 5684 5681 5678 5675 5673 5670 5668 5666 5664 5662 5659 5657 5654 5653 5652 5650 5649
5705 5706 5706 5707 5708 5708 5709 5709 5709 5709 5708 5706 5705 5702 5700 5697 5693 5690 5686 5683 5679 5676 5672 5669 5666 5663 5660 5658 5655 5652 5650 5647 5644 5641 5639 5636 5635 5633